Regional Weather Roundup
Issued by NWS Upton, NY

Home | Current Version | Previous Version | Text Only | Print | Product List | Glossary On
Versions: 1 2 3 4 5 6 7 8 9 10 11 12 13 14 15 16 17 18 19 20 21 22 23 24 25 26 27 28 29 30 31 32 33 34 35 36 37 38 39 40 41 42 43 44 45 46 47 48 49 50
000
ASUS41 KOKX 050408
RWROKX

REGIONAL WEATHER ROUNDUP
NATIONAL WEATHER SERVICE NEW YORK NY
1200 AM EDT TUE MAY 05 2015

NOTE: "FAIR" INDICATES FEW OR NO CLOUDS BELOW 12,000 FEET WITH NO
SIGNIFICANT WEATHER AND/OR OBSTRUCTIONS TO VISIBILITY.

NYZ071-072-176-178-NJZ106-104-050500-
NEW YORK CITY METRO AREA


CITY           SKY/WX    TMP DP  RH WIND       PRES   REMARKS
CENTRAL PARK   CLEAR     72  42  34 SW12G20   30.19R
LAGUARDIA APRT PTCLDY    73  41  31 SW15      30.15S
KENNEDY INTL   PTCLDY    58  48  69 S7        30.19R
NEWARK/LIBERTY PTCLDY    72  43  35 S15       30.16S
BRNX BOT. GARD   N/A     73  43  33 S7        30.16R
TETERBORO      CLEAR     72  41  32 SW12      30.15R
$$

NYZ177-179-078>081-050500-
LONG ISLAND NEW YORK

CITY           SKY/WX    TMP DP  RH WIND       PRES   REMARKS
FARMINGDALE    CLEAR     60  47  61 SW10      30.19R
ISLIP          CLEAR     62  46  55 SW15G24   30.17R
SHIRLEY        CLEAR     63  46  54 SW13G23   30.19S
WESTHAMPTON    CLEAR     57  45  64 SW13G18   30.20S
MONTAUK POINT    N/A     57  47  69 SW13G23   30.19S
$$

NYZ052-065-067-050500-
HUDSON VALLEY

CITY           SKY/WX    TMP DP  RH WIND       PRES   REMARKS
WHITE PLAINS   CLEAR     70  41  34 VRB3      30.15S
NEWBURGH       PTCLDY    73  45  35 SW7       30.13S
MONTGOMERY     MOCLDY    72  45  37 SW10      30.11S
POUGHKEEPSIE   MOCLDY    76  42  29 SW9       30.10R
ALBANY         CLOUDY    72  47  40 W13       30.09R
$$

NJZ001-105-106-008-010-013-015-019>022-104-050500-
NEW JERSEY

CITY           SKY/WX    TMP DP  RH WIND       PRES   REMARKS
NEWARK/LIBERTY PTCLDY    72  43  35 S15       30.16S
TETERBORO      CLEAR     72  41  32 SW12      30.15R
CALDWELL       CLEAR     72  43  35 SW6       30.16R
MORRISTOWN     CLEAR     72  39  30 SW6       30.16S
SOMERVILLE     CLEAR     63  45  51 CALM      30.15S
SUSSEX         PTCLDY    67  45  45 W3        30.16S
ANDOVER          N/A     69  46  43 SW5       30.16S
TRENTON        CLEAR     69  45  41 S10       30.18S
MILLVILLE      CLEAR     67  47  48 VRB7      30.21S
ATLANTIC CITY  CLEAR     64  47  53 S12       30.22S
WRIGHTSTOWN    CLEAR     66  45  47 SW10      30.17S
TOMS RIVER     CLEAR     66  43  42 SW10G16   30.21S
BELMAR         CLEAR     68  43  40 SW12G17   30.20R
$$

PAZ047>061-062-071-050500-
EASTERN PENNSYLVANIA

CITY           SKY/WX    TMP DP  RH WIND       PRES   REMARKS
PHILADELPHIA   PTCLDY    70  49  47 S7        30.20R
ALLENTOWN      CLEAR     64  48  56 SW5       30.17R
SCRANTON       PTCLDY    72  45  37 S6        30.14S
$$

CTZ002-004>006-009-010-012-RIZ004-006-007-MAZ004-011-015-050500-
SOUTHERN NEW ENGLAND
 IN CT

CITY           SKY/WX    TMP DP  RH WIND       PRES   REMARKS
BRADLEY INTL   PTCLDY    67  43  41 S12       30.10S
HARTFORD       CLEAR     66  42  41 S9        30.12R
DANBURY        CLEAR     69  41  36 S12       30.15S
WTRBRY/OXFORD    N/A     66  43  42 S8G16     30.16S
BRIDGEPORT     CLEAR     60  47  61 SW5       30.15S
MERIDEN        CLEAR     64  42  44 S7        30.14S
NEW HAVEN      CLEAR     62  45  53 SW9       30.15S
CHESTER        FAIR      64  43  45 SW10G17   30.16S
GROTON         CLEAR     58  44  60 SW6       30.17S
WILLIMANTIC    CLEAR     68  41  37 SW5       30.13F

 IN RI

CITY           SKY/WX    TMP DP  RH WIND       PRES   REMARKS
PROVIDENCE     CLEAR     64  41  42 SW14G26   30.14F
BLOCK ISLAND   CLEAR     54  46  76 SW20G28   30.18S
WESTERLY       CLEAR     56  45  66 SW6       30.18S

 IN MA

CITY           SKY/WX    TMP DP  RH WIND       PRES   REMARKS
BOSTON         PTCLDY    65  41  41 SW12      30.08F
WORCESTER      CLEAR     65  40  39 SW15      30.11F
WESTFIELD      PTCLDY    68  42  38 S10       30.09S
PROVINCETOWN   CLEAR     54  46  76 SW18G24   30.13F
NANTUCKET      CLEAR     53  49  86 SW13      30.19S
$$

ANZ330-335-338-340-345-350-353-355-050500-
COASTAL MARINE OBSERVATIONS


STATION/POSITION TIME  SKY/WX   TEMP    WIND        PRES    VSBY  WAVE
                                AIR SEA DIR/SP/G                  HT/PER
                 (UTC)          (F)     (DEG/KT/KT) (MB)    (MI)  (FT/S)
NY HARB ENTRANCE 0350            56 51  210/ 17/ 19 1021.5          4/ 5
4S FIRE IS       0303               49                N/A           5/ 5
20S FIRE ISLAND  0350            53 48  210/ 17/ 19 1022.5          4/ 4
GREAT SOUTH BAY  0300            59 59  230/ 19/ 23   N/A
23SW MTP         0350            52 46  220/ 16/ 19 1022.2          4/ 4
HUDSON CANYON    NOT AVBL
KINGS POINT      0300            63 48  200/ 10/ 13 1020.6
EASTERN LI SOUND 0300            53     210/ 12/ 16   N/A
ROBBINS REEF     0300            73     210/ 16/ 24 1020.1
$$


>>>>>>>>>>>>>>>>>>>>>>>>>>>> KEY <<<<<<<<<<<<<<<<<<<<<<<<<<<
>                                                          <
>     SKY/WX - SKY CONDITION/PRESENT WEATHER               <
>     TMP    - TEMPERATURE IN FAHRENHEIT                   <
>     DP     - DEWPOINT IN FAHRENHEIT                      <
>     RH     - RELATIVE HUMIDITY IN PERCENT                <
>     WIND   - DIRECTION AND SPEED IN MPH                  <
>     PRES   - MEAN SEA LEVEL PRESSURE IN INCHES OF HG     <
>     WCI    - WIND CHILL INDEX                            <
>     VSB    - VISIBILITY IN MILES                         <
>     HX     - HEAT INDEX                                  <
>     TC     - TEMPERATURE IN CELSIUS                      <
>     VRB    - VARIABLE WIND DIRECTION                     <
>                                                          <
>>>>>>>>>>>>>>>>>>>>>>>>>>>> KEY <<<<<<<<<<<<<<<<<<<<<<<<<<<




USA.gov is the U.S. government's official web portal to all federal, state and local government web resources and services.